AirNav   Pilot Hours Calculator
 
 1053 users online  

MO91 Barnes Jewish Hospital Heliport
St Louis, Missouri, USA

GOING TO ST LOUIS?


FAA INFORMATION EFFECTIVE 03 DECEMBER 2020

Location

FAA Identifier: MO91
Lat/Long: 38-38-10.5400N 090-15-57.2900W
38-38.175667N 090-15.954833W
38.6362611,-90.2659139
(estimated)
Elevation: 513 ft. / 156 m (estimated)
Variation: 01E (1990)
Time zone: UTC -6 (UTC -5 during Daylight Saving Time)
Zip code: 63110

Heliport Operations

Heliport use: Private use, MEDICAL USE.
Activation date: 06/1991
Control tower: no
ARTCC: KANSAS CITY CENTER
FSS: SAINT LOUIS FLIGHT SERVICE STATION
Attendance: CONTINUOUS
Wind indicator: yes
Segmented circle: no
Lights: ACTVT PERIMETER LGTS - 123.10.

Heliport Communications

WX ASOS at CPS (7 nm SE): PHONE 618-332-0001
WX ASOS at STL (8 nm NW): 125.025 (314-890-4790)
WX ASOS at SUS (18 nm W): 134.8 (314-890-7255)
WX AWOS-3 at ALN (18 nm NE): 128.0 (618-259-7231)
WX ASOS at SET (19 nm NW): 118.075 (636-250-4590)

Nearby radio navigation aids

VOR radial/distance  VOR name  Freq  Var
STLr142/16.8ST LOUIS VORTAC117.4001E
TOYr245/17.4TROY VORTAC116.0004E
FTZr091/33.2FORISTELL VORTAC110.8005E

 
NDB name  Hdg/Dist  Freq  Var  ID
ACORE306/11.935000ECP -.-. .--.
EAVES102/13.422701WFZ ..-. --..
CIVIC MEMORIAL214/18.226301WCVM -.-. ...- --

Heliport Services

Runway Information

Helipad H1

Dimensions: 40 x 40 ft. / 12 x 12 m
Surface: concrete
Runway edge lights: PERI
Latitude: 38-38.175667N
Longitude: 090-15.954833W
Elevation: 513.0 ft.
Traffic pattern: leftleft

Heliport Ownership and Management from official FAA records

Ownership: Privately-owned
Owner: BARNES JEWISH HOSPITAL
ONE BARNES JEWISH PLAZA
ST LOUIS, MO 63110
Phone 314-747-3000
Manager: RICK HAAS
ONE BARNES JEWISH PLAZA
ST LOUIS, MO 63110
Phone 314-747-3000

Heliport Operational Statistics

Aircraft based on the field: 1
Helicopters: 1
    

Additional Remarks

A52-H1 220 FT TWR 150 FT NORTH & 20 FT PEDESTRIAN BRIDGE 100 FT EAST OF HELIPAD.
OWNER DESIRES HELIPAD NOT BE CHARTED.
FOR CD CTC ST LOUIS APCH AT 314-890-1018.

Instrument Procedures

There are no published instrument procedures at MO91.

Some nearby airports with instrument procedures:

KCPS - St Louis Downtown Airport (7 nm SE)
KSTL - St Louis Lambert International Airport (8 nm NW)
1H0 - Creve Coeur Airport (13 nm NW)
KSUS - Spirit of St Louis Airport (18 nm W)
KALN - St Louis Regional Airport (18 nm NE)
KSET - St Charles County Smartt Airport (19 nm NW)
 
Loc | Ops | Rwys | IFR | FBO | Links
Com | Nav | Svcs | Stats | Notes
Area around MO91 (Barnes Jewish Hospital Heliport)
 
Road maps at: MapQuest Bing Google
 
Aerial photo
No photo
 
Sectional chart

 
Airport distance calculator
Flying to Barnes Jewish Hospital Heliport? Find the distance to fly.

From to MO91

Sunrise and sunset
Times for 04-Dec-2020
 Local
(UTC-6)
 Zulu
(UTC)
Morning civil twilight06:3512:35
Sunrise07:0513:05
Sunset16:3922:39
Evening civil twilight17:0823:08

Current date and time
Zulu (UTC)  05-Dec-2020 00:18:13
Local (UTC-6)  04-Dec-2020 18:18:13
 
METAR
KCPS 
7nm SE 
042353Z 26005KT 10SM CLR 08/M02 A3002 RMK AO2 SLP168 T00781017 10100 20078 53010
KSTL 
8nm NW 
042351Z 24007KT 10SM CLR 08/M02 A3002 RMK AO2 SLP171 T00781017 10111 20078 53010
KSUS 
18nm W 
042354Z 24003KT 10SM CLR 05/M02 A3002 RMK AO2 SLP171 T00501017 10106 20050 53009
KALN 
18nm NE 
042350Z 24006KT 10SM CLR 05/00 A3001
KSET 
19nm NW 
042354Z AUTO 28005KT 10SM CLR 07/00 A3001 RMK AO2 SLP165 T00720000 10111 20061 53012
TAF
KCPS 
7nm SE 
041726Z 0418/0518 27009KT P6SM SCT035
KSTL 
8nm NW 
041726Z 0418/0524 26010KT P6SM SCT120
KSUS 
18nm W 
041726Z 0418/0518 26009KT P6SM SCT120
NOTAMs
Click for the latest NOTAMs
NOTAMs are issued by the DoD/FAA and will open in a separate window not controlled by AirNav.

 

 
 

Would you like to see your business listed on this page?

 If your business provides an interesting product or service to pilots, flight crews, aircraft, or users of the Barnes Jewish Hospital Heliport, you should consider listing it here.  To start the listing process, click on the button below
 
Add a business
 

Other Pages about Barnes Jewish Hospital Heliport

Update a link
 
Copyright © AirNav, LLC. All rights reserved. Privacy Policy  Contact